AirNav   Duncan Aviation - Near you to keep you flying
 
 407 users online  

FD27 Cuyler Field Airport
Glen St Mary, Florida, USA

GOING TO GLEN ST MARY?


FAA INFORMATION EFFECTIVE 16 JUNE 2022

Location

FAA Identifier: FD27
Lat/Long: 30-21-45.8400N 082-13-34.4170W
30-21.764000N 082-13.573617W
30.3627333,-82.2262269
(estimated)
Elevation: 120 ft. / 37 m (estimated)
Variation: 03W (1985)
From city: 1 mile N of GLEN ST MARY, FL
Time zone: UTC -4 (UTC -5 during Standard Time)
Zip code: 32040

Airport Operations

Airport use: Private use. Permission required prior to landing
Activation date: 01/1985
Control tower: no
ARTCC: JACKSONVILLE CENTER
FSS: GAINESVILLE FLIGHT SERVICE STATION
Attendance: UNATNDD
Wind indicator: yes
Segmented circle: yes

Airport Services

Runway Information

Runway 9/27

Dimensions: 3250 x 66 ft. / 991 x 20 m
Surface: turf
RUNWAY 9  RUNWAY 27
Traffic pattern: leftleft
Obstructions: 50 ft. trees, 1300 ft. from runway40 ft. pline, 1050 ft. from runway

Airport Ownership and Management from official FAA records

Ownership: Privately-owned
Owner: CUYLER FIELD HOMEOWNER'S ASSN, INC.
10652 CUYLER AIRFIELD LN
GLEN ST. MARY, FL 32040
Phone 904-653-2583
Manager: CURTIS MILLER
10652 CUYLER AIRFIELD LN
GLEN ST. MARY, FL 32040
Phone 904-653-2583

Airport Operational Statistics

Aircraft based on the field: 30
Single engine airplanes: 30
    

Additional Remarks

FOR CD CTC JACKSONVILLE APCH AT 904-741-0284.

Instrument Procedures

There are no published instrument procedures at FD27.

Some nearby airports with instrument procedures:

KVQQ - Cecil Airport (20 nm SE)
KLCQ - Lake City Gateway Airport (21 nm SW)
KHEG - Herlong Recreational Airport (22 nm E)
KJAX - Jacksonville International Airport (29 nm E)
KNIP - Jacksonville Naval Air Station (Towers Field) (30 nm E)
 
Loc | Ops | Rwys | IFR | FBO | Links
Com | Nav | Svcs | Stats | Notes
Area around FD27 (Cuyler Field Airport)
 
Road maps at: MapQuest Bing Google
 
Aerial photo
WARNING: Photo may not be current or correct
Aerial photo of FD27 (Cuyler Field Airport)
Do you have a better or more recent aerial photo of Cuyler Field Airport that you would like to share? If so, please send us your photo.

 
Sectional chart

 
Airport distance calculator
Flying to Cuyler Field Airport? Find the distance to fly.

From to FD27

Sunrise and sunset
Times for 25-Jun-2022
 Local
(UTC-4)
 Zulu
(UTC)
Morning civil twilight06:0210:02
Sunrise06:2910:29
Sunset20:3400:34
Evening civil twilight21:0101:01

Current date and time
Zulu (UTC)  25-Jun-2022 09:09:35
Local (UTC-4)  25-Jun-2022 05:09:35
 
METAR
KVQQ 
20nm SE 
250855Z AUTO 00000KT 9SM CLR 24/24 A2997 RMK AO2
KLCQ 
21nm SW 
250855Z AUTO 00000KT 7SM CLR 21/21 A2998 RMK AO2
KHEG 
22nm E 
250855Z AUTO 00000KT 10SM CLR 25/24 A2999 RMK AO2
KJAX 
29nm E 
250856Z 07005KT 10SM FEW160 BKN250 24/23 A2996 RMK AO2 SLP147 T02440228 57003 $
KNIP 
30nm E 
250853Z 08006KT 10SM FEW020 SCT250 27/24 A2997 RMK AO2 SLP144 T02670244 57005
K42J 
32nm S 
250855Z AUTO 00000KT 5SM BR SCT019 22/22 A2997 RMK A01
KCRG 
37nm E 
250853Z AUTO 09007KT 10SM FEW018 SCT024 BKN030 27/23 A2997 RMK AO2 SLP148 T02720233 56005
TAF
KVQQ 
20nm SE 
250532Z 2506/2606 00000KT P6SM FEW020 BKN250 TEMPO 2507/2511 4SM BR FM251400 07008KT P6SM VCSH SCT025 BKN040 FM251800 08012G18KT P6SM VCTS SCT025CB BKN080 FM260000 07008KT P6SM SCT025 BKN250
NOTAMs
Click for the latest NOTAMs
NOTAMs are issued by the DoD/FAA and will open in a separate window not controlled by AirNav.

 

 
 

Would you like to see your business listed on this page?

 If your business provides an interesting product or service to pilots, flight crews, aircraft, or users of the Cuyler Field Airport, you should consider listing it here.  To start the listing process, click on the button below
 
Add a business
 

Other Pages about Cuyler Field Airport

Update a link
 
Copyright © AirNav, LLC. All rights reserved. Privacy Policy  Contact